RH
67 60 50 41 28 30 25 19 25 29 33 40 36 42 73 66 66 76 32 32 32 37 42 46 69 74 77 80 81 81 81 84 84 85 82 75 75 74 72 72 73 72 73 73 74 73 74 74 73
62 45 48 43 26 27 19 21 26 28 40 42 43 45 48 65 39 32 32 30 33 39 41 49 66 70 74 76 79 80 80 82 83 84 85 83 80 74 79 74 73 73 75 75 78 77 78 77 77
36 45 48 43 40 24 18 19 24 44 44 42 47 45 51 54 35 30 28 30 33 35 38 55 61 67 69 71 73 76 77 78 80 83 84 85 84 81 75 80 77 78 80 82 82 81 82 81 82
40 48 44 47 38 30 22 25 45 46 44 42 43 48 46 36 35 27 27 30 32 34 37 55 58 62 66 66 68 70 73 74 74 79 81 85 84 86 89 89 87 84 84 84 82 82 83 85 84
60 49 45 61 46 34 29 29 47 45 44 45 42 51 47 34 29 29 32 32 37 38 40 52 55 61 62 64 65 67 68 70 70 72 76 80 85 88 89 88 87 88 86 82 81 80 82 86 86
60 46 42 41 39 27 33 36 38 42 41 44 43 45 46 32 29 37 36 36 36 39 40 44 52 59 62 62 63 64 64 65 66 68 69 74 78 82 86 87 89 88 85 86 82 83 82 86 87
64 57 54 34 25 30 28 30 36 37 42 41 41 50 44 32 31 37 37 38 40 43 42 42 42 45 61 62 61 62 64 62 63 64 63 65 69 74 79 82 87 89 88 87 84 84 85 86 87
57 47 56 42 28 22 27 28 32 33 33 30 39 50 49 33 38 40 39 39 40 43 49 42 38 42 44 51 60 60 59 60 60 63 61 58 62 63 70 73 80 84 88 89 89 86 84 85 89
48 54 63 36 28 29 27 26 24 33 32 39 40 47 42 36 42 45 49 49 49 44 46 46 43 40 42 43 50 62 58 61 62 61 60 57 57 62 63 66 72 76 79 83 89 92 96 87 94
50 64 50 37 31 30 28 27 25 28 38 45 46 42 39 40 43 52 56 56 53 50 51 48 47 48 47 36 56 60 53 61 58 57 56 56 57 58 58 62 64 68 70 73 82 87 90 95 96
46 49 38 29 39 30 26 27 25 32 38 39 46 46 43 43 47 52 55 53 52 52 56 55 46 51 53 56 60 64 67 68 66 61 63 58 58 61 60 63 64 64 67 65 67 83 86 87 93
28 29 30 32 30 31 28 24 25 31 33 35 44 40 42 45 51 52 54 57 54 52 53 54 54 49 56 66 65 67 67 67 67 69 67 66 68 64 66 66 63 59 59 58 59 69 70 76 83
26 25 25 26 26 25 24 30 27 30 41 44 41 41 45 49 52 52 54 58 56 52 52 56 55 56 54 57 66 67 72 73 74 72 68 70 71 70 69 70 68 63 58 56 62 64 59 72 76
26 25 23 22 23 23 27 29 26 36 45 43 42 46 50 53 51 54 56 60 52 50 53 57 57 56 53 59 62 68 72 76 75 73 72 71 75 75 75 76 72 69 68 64 58 67 65 60 76
24 24 22 24 22 24 24 24 27 36 42 43 43 46 54 55 51 50 54 55 53 52 52 56 57 56 57 60 65 70 73 71 75 72 72 70 69 74 76 80 80 79 75 73 66 61 71 75 67
24 24 26 25 25 24 21 24 31 45 44 48 47 47 53 58 53 55 56 58 55 56 51 53 47 58 58 61 66 67 70 72 74 73 74 69 68 70 74 79 81 84 86 82 81 81 73 78 78
30 28 27 24 27 25 20 22 29 41 44 48 48 50 54 58 56 55 56 59 57 54 56 58 56 58 60 57 66 65 63 69 72 71 71 69 72 72 74 80 81 82 87 92 88 87 91 90 82
40 30 27 28 28 27 27 36 26 38 44 47 49 51 58 58 54 54 60 58 59 58 57 57 59 56 56 61 60 62 62 68 70 76 77 72 70 71 72 77 74 80 83 84 85 86 83 84 86
73 77 64 48 26 29 28 30 28 27 44 48 50 49 53 56 50 53 57 59 60 59 58 57 56 58 59 60 58 60 64 66 67 76 68 72 71 73 72 75 76 79 83 85 79 86 91 89 87
51 57 52 42 27 36 56 58 53 32 49 50 51 48 49 60 55 58 61 57 58 56 59 61 56 56 59 60 63 65 66 67 69 72 68 69 68 74 60 75 78 78 82 84 87 88 92 90 89
62 80 68 66 48 54 60 69 57 56 51 59 50 54 44 55 57 57 76 64 72 58 70 64 66 63 62 62 63 62 62 62 62 66 68 69 70 74 76 75 78 79 82 87 87 88 89 95 92
54 40 50 58 77 92 82 93 68 80 79 82 73 73 56 57 55 54 70 81 81 82 70 74 73 69 61 64 64 61 61 57 67 71 70 67 68 71 77 77 77 79 82 85 87 68 87 90 93
47 38 48 76 94 93 87 87 75 69 72 77 82 79 75 71 64 63 67 75 84 87 89 89 82 81 76 74 68 68 62 69 72 72 69 68 72 75 76 78 79 80 83 84 85 86 88 90 93
40 44 68 85 95 98 85 89 86 77 81 84 89 88 80 82 69 64 65 78 93 96 96 91 93 91 94 91 84 69 66 67 66 66 67 68 71 76 79 76 78 80 82 83 84 85 86 89 89
73 84 96 96 98 95 88 90 84 79 85 89 94 92 87 86 80 77 75 80 92 91 94 97 92 94 95 94 83 91 71 74 76 74 72 72 69 68 72 78 81 82 81 80 80 83 85 87 90
96 86 94 100 100 95 81 92 72 83 87 93 96 95 86 89 85 80 78 83 90 91 91 95 95 93 96 97 94 85 78 78 76 75 75 75 72 71 74 81 83 83 81 80 81 83 84 84 88
81 97 89 96 98 98 100 80 80 82 83 90 90 83 88 88 86 84 84 87 91 91 90 90 92 95 94 92 96 95 86 79 75 73 76 74 74 66 71 81 82 80 81 78 80 84 84 82 84
76 83 92 97 100 100 95 99 95 86 89 87 88 93 90 85 88 90 91 92 91 91 90 91 91 90 89 89 93 94 94 83 82 79 77 75 74 77 81 84 85 82 80 80 80 81 78 80 81
91 96 93 94 97 97 100 97 90 90 93 91 86 89 90 92 90 89 91 91 90 92 93 93 92 91 90 91 95 96 96 93 79 77 78 76 76 80 80 81 80 77 77 80 75 72 74 77 78
94 96 92 96 94 98 95 89 90 90 92 88 89 84 87 89 88 89 88 88 88 89 91 92 93 92 89 91 93 93 96 92 83 79 75 76 83 78 80 81 80 74 73 76 77 77 72 74 75
Wind_Speed
5 4 1 1 3 3 5 7 0 2 3 2 4 2 4 5 3 5 4 6 6 4 4 6 5 8 10 12 13 14 16 17 17 16 13 10 9 8 8 9 9 9 8 6 10 14 13 14 15
3 1 4 3 5 4 6 4 6 4 4 6 6 3 5 3 3 7 5 5 6 5 4 7 7 9 10 11 12 14 15 15 15 15 15 13 10 8 8 8 8 8 8 9 10 13 13 12 12
1 1 4 5 5 9 5 5 6 4 7 3 5 6 2 6 3 5 4 8 6 5 6 5 8 10 10 11 12 13 15 14 13 14 14 13 14 10 8 8 7 6 5 7 10 12 13 12 9
2 3 4 3 8 6 5 3 4 9 1 4 4 8 2 3 6 5 9 9 6 6 7 5 8 11 11 11 12 13 15 14 13 12 13 14 12 15 16 16 12 5 3 4 9 11 12 11 8
3 3 2 3 6 5 3 1 6 7 6 3 2 6 3 2 7 9 9 9 8 6 8 9 10 11 12 12 13 15 14 13 13 12 13 12 12 13 13 14 14 17 11 3 8 12 14 12 9
3 3 2 6 5 4 3 5 7 3 2 4 6 5 3 6 7 6 8 9 7 7 7 7 11 12 14 13 14 14 12 13 13 13 13 13 12 12 13 14 13 13 14 13 7 10 11 12 12
5 4 5 4 6 3 6 8 7 6 5 1 11 7 1 6 7 8 9 9 7 7 7 5 6 9 14 13 13 13 12 13 13 15 14 13 13 13 14 15 14 12 13 12 9 8 9 8 10
5 4 3 5 5 6 4 4 2 4 3 4 2 6 6 8 10 10 9 9 7 6 6 5 6 6 7 8 12 13 13 13 13 15 14 13 12 13 14 15 15 13 13 14 12 8 7 7 5
4 1 4 4 7 4 4 4 2 2 7 4 3 3 3 18 13 11 8 7 5 7 6 6 6 7 6 8 9 10 13 15 15 13 15 10 6 7 9 13 14 14 13 14 14 15 15 6 3
4 4 10 2 1 1 3 1 8 4 4 2 3 5 14 17 14 12 7 6 4 4 5 5 6 7 7 7 6 6 7 6 8 9 9 6 7 8 9 10 13 13 15 14 15 15 15 12 2
4 5 3 2 1 1 5 2 3 9 3 6 9 15 15 16 12 11 6 6 6 4 5 5 5 6 6 5 4 4 4 5 5 8 8 7 6 6 6 5 6 7 13 7 9 8 6 8 6
3 1 2 2 4 1 5 5 5 5 3 2 10 18 15 16 12 11 9 8 7 6 5 5 5 5 6 4 4 4 5 5 5 6 9 6 5 6 6 5 6 7 6 8 6 5 6 7 7
1 2 2 2 5 3 1 1 1 4 2 8 15 15 14 12 9 7 8 7 7 6 5 5 5 6 5 5 4 4 5 5 5 6 7 6 6 6 5 6 6 6 7 7 6 6 6 7 7
2 3 2 4 3 4 1 1 1 1 5 10 14 12 11 11 11 8 8 7 6 7 6 5 6 6 5 5 5 4 4 4 5 5 6 6 4 4 5 5 5 6 6 6 6 6 6 5 5
4 3 5 2 3 3 3 6 7 4 7 9 10 10 10 10 11 11 9 9 8 6 7 6 6 5 6 5 5 4 4 5 4 4 6 6 5 5 5 4 5 4 4 6 5 6 5 4 5
3 5 1 3 2 3 1 7 3 5 10 10 9 9 9 8 10 8 8 8 7 7 7 5 6 5 5 5 4 3 4 3 3 4 4 7 7 6 5 4 4 4 4 4 4 5 6 5 5
4 3 4 3 1 1 2 5 4 3 5 7 8 8 9 7 6 6 8 8 8 7 7 6 6 5 5 4 4 5 5 4 4 4 4 5 6 7 5 4 4 5 3 4 4 4 4 4 5
6 4 4 4 2 1 3 10 9 3 6 8 7 7 8 10 9 9 9 8 8 7 7 7 5 5 4 3 3 3 3 4 4 4 4 6 5 6 5 4 5 5 4 4 4 3 3 3 4
6 4 2 2 2 3 7 8 11 6 6 8 8 8 10 11 8 9 9 8 8 6 7 6 6 3 3 3 2 2 2 2 3 4 5 5 5 6 5 4 5 5 5 5 6 3 4 3 6
2 2 4 2 0 1 4 12 12 9 9 14 15 13 12 8 10 10 10 9 9 8 7 6 5 4 3 2 2 1 1 1 1 3 4 5 6 6 5 4 4 5 4 5 5 5 4 3 5
2 3 1 2 4 1 6 10 7 3 5 5 12 11 12 17 16 13 10 10 7 9 8 7 6 5 3 3 2 2 1 1 2 3 3 5 6 6 5 4 3 4 3 3 4 4 5 3 3
2 1 2 3 4 4 3 8 7 3 5 3 4 7 10 13 13 14 12 8 9 7 7 7 6 5 4 3 3 2 1 1 1 2 3 4 5 5 5 5 4 5 4 4 3 3 3 3 3
2 3 3 3 4 4 3 2 9 3 5 4 6 8 9 10 15 15 15 13 6 7 7 6 6 5 5 4 3 2 1 1 1 2 4 4 3 4 5 5 4 4 3 3 4 4 3 2 2
2 4 6 4 4 3 4 5 7 2 2 7 4 5 7 9 13 13 9 9 5 3 3 5 4 4 3 3 3 2 0 2 3 3 4 3 4 3 4 6 5 4 4 4 3 4 4 3 4
6 5 4 6 4 6 3 3 10 7 5 5 11 8 6 7 9 12 13 10 7 7 6 3 5 3 3 2 2 1 1 2 3 4 4 6 5 4 5 6 6 5 5 6 5 5 5 4 4
1 6 6 6 2 4 4 6 6 6 7 6 4 2 7 6 7 9 10 9 9 8 7 5 5 4 3 3 3 1 2 1 2 3 3 4 4 5 6 6 6 7 7 6 6 5 5 6 6
2 1 3 5 2 3 2 8 7 5 6 8 7 8 7 8 8 9 8 8 7 7 9 9 7 4 5 6 3 3 2 3 3 4 4 4 5 6 6 6 8 8 8 8 7 6 8 7 7
2 2 4 2 2 4 6 5 4 8 9 7 7 6 6 5 4 4 5 6 5 6 7 8 7 8 6 5 4 3 3 3 4 3 5 5 6 7 7 8 8 9 9 9 9 8 8 9 8
2 2 3 2 2 5 1 3 3 6 4 4 5 3 2 3 3 4 5 4 5 4 5 5 6 6 5 5 4 3 3 3 4 4 4 5 7 7 8 8 9 10 10 9 10 11 12 13 12
2 2 3 3 4 1 3 4 1 6 6 2 4 3 3 5 5 5 5 5 5 5 5 7 6 6 6 4 4 4 3 3 4 5 6 6 7 8 9 9 10 11 11 10 11 12 12 13 14
Wind_Direction
346 322 146 57 110 75 237 240 318 122 168 334 38 117 152 36 141 188 241 125 116 95 337 318 38 42 44 52 56 58 53 46 45 48 52 79 79 74 73 86 84 94 89 122 122 114 119 119 115
358 24 43 79 119 179 235 222 212 167 115 123 65 33 45 98 69 119 119 151 123 96 351 314 65 52 53 54 59 62 61 47 41 43 41 48 54 58 61 80 85 85 90 120 121 125 126 124 121
306 46 106 154 184 211 212 199 177 102 152 114 105 39 91 140 99 118 113 116 100 61 9 334 70 63 60 58 61 65 66 63 52 44 39 39 48 48 60 55 71 69 96 121 132 136 135 134 136
166 28 23 124 235 256 206 188 124 127 164 62 132 82 61 301 141 127 112 100 78 49 20 31 73 68 65 59 61 63 60 59 54 53 52 38 42 50 46 42 30 37 75 137 136 139 139 142 146
33 58 156 225 239 261 237 225 161 158 144 133 154 163 67 5 111 112 107 101 96 56 33 8 59 64 64 56 54 52 54 54 51 51 54 47 40 37 39 46 37 28 13 203 155 152 149 152 153
54 95 120 217 231 214 263 160 136 124 107 125 91 111 134 130 122 127 110 99 89 81 57 38 33 51 59 51 53 51 51 48 46 51 46 44 43 43 41 38 42 30 16 9 195 171 162 161 165
135 111 215 187 224 250 200 155 162 144 124 153 134 113 103 175 143 122 106 95 83 77 73 59 49 47 42 53 50 45 44 42 42 45 47 41 39 36 43 33 31 35 22 14 1 197 182 176 181
121 113 196 232 185 250 178 125 116 127 150 102 110 178 187 187 138 112 102 95 86 72 62 56 51 52 53 37 42 47 40 36 39 36 40 39 36 35 30 36 25 32 30 21 25 5 205 206 199
142 103 222 231 160 232 161 138 48 50 99 54 9 148 140 134 126 111 103 90 85 68 54 50 48 46 40 46 34 34 35 34 28 33 29 24 20 13 24 26 27 25 30 26 24 16 6 216 211
137 169 206 221 128 208 194 187 151 127 106 59 43 29 118 132 137 131 137 123 101 82 60 50 45 46 46 47 16 25 21 26 26 15 23 20 22 19 21 15 23 22 23 28 23 16 15 6 129
170 215 209 145 357 331 163 115 138 123 220 202 184 150 143 145 145 143 141 131 127 99 68 48 53 47 50 38 33 12 21 16 19 20 21 21 24 15 20 14 7 7 16 17 12 11 5 1 348
180 129 337 20 356 187 166 128 177 203 164 273 157 155 149 155 157 151 139 138 132 116 96 59 48 52 45 53 44 27 23 24 24 13 20 23 27 22 25 18 14 14 8 8 7 4 349 350 343
245 149 67 47 40 49 235 133 279 218 8 110 135 154 157 155 142 128 133 129 124 107 100 75 60 49 41 44 40 37 32 34 11 20 19 27 23 27 21 20 19 23 4 6 356 356 355 348 342
56 39 35 13 26 43 8 179 229 148 126 129 148 157 156 153 150 131 140 140 135 132 123 104 75 66 51 45 40 36 40 30 27 15 14 24 26 19 23 23 20 14 1 357 350 348 354 340 333
118 2 341 339 360 32 327 272 228 154 138 149 161 160 150 153 147 159 151 149 143 136 133 119 102 77 65 56 48 48 36 37 33 13 11 10 21 27 27 24 18 358 350 353 354 359 347 340 333
94 53 127 354 21 8 94 252 47 169 151 173 167 164 157 157 161 148 148 142 142 132 126 108 91 73 57 55 56 61 56 56 42 17 7 8 10 20 25 21 13 355 1 359 355 8 342 343 333
12 195 193 305 143 27 157 277 27 181 180 181 177 169 162 148 146 151 151 143 145 138 128 114 101 81 68 43 43 41 35 34 29 26 16 12 13 16 14 20 3 2 6 12 359 1 357 332 335
190 196 217 224 213 179 261 265 272 188 202 209 185 168 165 172 179 163 152 147 142 136 125 119 106 92 72 54 50 46 42 33 23 18 28 22 14 11 12 9 1 1 5 10 7 351 318 290 331
114 102 172 262 160 203 234 258 268 236 216 216 204 195 186 183 167 157 153 143 132 131 133 135 124 91 69 47 37 32 27 359 27 19 17 19 8 4 359 7 0 360 2 359 0 328 358 338 348
139 125 238 304 194 146 333 276 253 211 209 205 204 201 186 166 160 158 156 155 161 151 145 140 129 117 91 81 64 59 10 354 6 14 7 12 1 358 359 358 349 351 353 356 2 12 351 343 9
133 155 337 247 325 333 330 282 256 261 227 210 212 198 192 179 169 167 164 168 149 156 158 152 147 131 102 85 70 23 10 8 15 5 356 349 345 346 348 343 341 341 349 352 357 350 9 356 333
251 51 87 46 61 241 64 283 305 333 319 279 241 209 193 179 171 165 166 163 173 171 156 151 150 144 139 120 97 91 80 346 22 313 314 327 334 332 330 338 342 341 342 348 342 4 356 346 321
162 52 62 85 90 51 305 75 273 11 351 319 300 240 200 177 167 166 172 178 167 158 162 154 149 145 139 135 124 124 129 233 285 295 321 317 316 321 329 332 331 332 325 322 316 313 315 295 281
131 82 39 48 77 9 248 138 285 323 285 299 289 290 209 172 163 166 154 134 122 103 126 146 142 155 134 133 138 139 139 327 338 336 331 331 324 331 325 332 325 315 306 304 298 287 269 260 267
62 59 343 351 18 222 332 58 248 286 261 263 296 294 195 165 149 144 146 156 151 169 175 173 164 188 172 158 176 168 284 312 309 319 319 323 328 333 325 328 318 312 301 298 293 284 273 257 243
117 151 162 219 205 277 61 235 268 241 294 313 352 106 105 107 130 146 153 155 165 178 181 180 179 200 192 186 215 224 256 276 279 280 290 291 294 298 301 294 291 287 289 284 284 281 274 262 246
210 143 200 105 45 47 265 295 321 323 13 16 38 73 93 114 126 133 140 160 171 179 192 191 188 197 195 201 187 223 249 265 271 283 275 276 282 293 297 310 296 289 281 288 282 272 276 268 260
121 164 72 7 169 268 298 277 258 350 354 15 31 38 33 45 81 125 160 174 184 192 189 182 188 192 185 186 189 202 227 266 270 279 281 284 287 289 287 286 285 287 284 280 277 273 270 264 262
130 300 28 117 156 168 258 303 230 288 311 315 36 40 346 311 266 219 212 209 197 182 178 182 177 178 184 185 181 193 235 261 283 276 280 287 292 288 284 283 285 285 281 277 276 275 273 269 267
87 236 211 188 226 122 145 281 319 297 300 139 39 346 242 203 213 227 224 214 213 210 190 196 187 192 198 182 174 203 223 261 274 280 288 295 287 287 286 277 274 276 277 272 268 265 266 265 263